EW3857 Weather Reports


Display with metric or nautical units.
time (UTC)temp
F
wind
direction
speed
MPH
gust
MPH
rain 1hr
in
rain 24hr
in
rain mn
in
humidity
%
barometer
mb
20260831052416 75 271 0.0 0.0 0.00 0.00 0.00 98 1021.5
20260831051914 75 271 0.0 0.0 0.00 0.00 0.00 98 1021.3
20260831051413 75 271 0.0 0.0 0.00 0.00 0.00 98 1021.3
20260831050908 75 271 0.0 0.0 0.00 0.00 0.00 98 1021.2
20260831050402 75 271 0.0 0.0 0.00 0.00 0.00 98 1021.2
20260831045901 76 271 0.0 0.0 0.00 0.00 0.00 98 1021.2
20260831045401 75 272 0.0 0.0 0.00 0.00 0.00 98 1021.4
20260831044855 75 271 0.0 0.0 0.00 0.00 0.00 98 1021.1
20260831044350 75 271 0.0 0.0 0.00 0.00 0.00 97 1021.4
20260831043847 75 272 0.0 0.0 0.00 0.00 0.00 97 1021.3
20260831043346 75 272 0.0 0.0 0.00 0.00 0.00 97 1021.5
20260831042841 76 272 0.0 0.0 0.00 0.00 0.00 97 1021.2
20260831042340 76 271 0.0 0.0 0.00 0.00 0.00 97 1021.1
20260831041836 76 271 0.0 0.0 0.00 0.00 0.00 97 1021.4
20260831041335 76 271 0.0 0.0 0.00 0.00 0.00 97 1021.3
20260831040830 75 271 0.0 0.0 0.00 0.00 0.00 97 1021.4
20260831040330 76 271 0.0 0.0 0.00 0.00 0.00 97 1021.5
20260831035828 76 271 0.0 0.0 0.00 0.00 0.00 96 1021.5
20260831035327 76 272 0.0 0.0 0.00 0.00 0.00 96 1021.5
20260831034822 76 272 0.0 0.0 0.00 0.00 0.00 96 1021.4
20260831034318 76 273 0.0 0.0 0.00 0.00 0.00 96 1021.6
20260831033813 76 272 0.0 0.0 0.00 0.00 0.00 96 1021.6
20260831033313 76 272 0.0 0.0 0.00 0.00 0.00 96 1021.4
20260831032808 76 272 0.0 0.0 0.00 0.00 0.00 95 1021.8
20260831032306 76 272 0.0 0.0 0.00 0.00 0.00 95 1021.7
20260831031758 76 272 0.0 0.0 0.00 0.00 0.00 95 1021.6
20260831031257 76 270 0.0 0.0 0.00 0.00 0.00 95 1021.7
20260831030752 76 270 0.0 0.0 0.00 0.00 0.00 95 1021.8
20260831030250 76 271 0.0 0.0 0.00 0.00 0.00 94 1021.6
20260831025749 76 269 0.0 0.0 0.00 0.00 0.00 94 1021.7
20260831025244 76 269 0.0 0.0 0.00 0.00 0.00 94 1021.7
20260831024740 76 269 0.0 0.0 0.00 0.00 0.00 94 1021.6
20260831024239 76 270 0.0 0.0 0.00 0.00 0.00 93 1021.5
20260831023738 76 270 0.0 0.0 0.00 0.00 0.00 93 1021.6
20260831023231 76 270 0.0 0.0 0.00 0.00 0.00 93 1021.5
20260831022726 76 270 0.0 0.0 0.00 0.00 0.00 93 1021.5
20260831022221 76 270 0.0 0.0 0.00 0.00 0.00 92 1021.5
20260831021720 77 270 0.0 0.0 0.00 0.00 0.00 92 1021.4
20260831021215 77 270 0.0 0.0 0.00 0.00 0.00 92 1021.5
20260831020712 77 270 0.0 0.0 0.00 0.00 0.00 91 1021.3
20260831020210 77 271 0.0 0.0 0.00 0.00 0.00 91 1021.3
20260831015706 77 270 0.0 0.0 0.00 0.00 0.00 91 1021.3
20260831015201 77 271 0.0 0.0 0.00 0.00 0.00 91 1021.2
20260831014655 77 271 0.0 0.0 0.00 0.00 0.00 91 1021.2
20260831014150 77 273 0.0 0.0 0.00 0.00 0.00 91 1021.0
20260831013647 77 270 0.0 0.0 0.00 0.00 0.00 91 1020.9
20260831013146 77 269 0.0 0.0 0.00 0.00 0.00 90 1020.8
20260831012641 78 267 0.0 0.0 0.00 0.00 0.00 90 1020.6
20260831012137 78 268 0.0 0.0 0.00 0.00 0.00 90 1020.8
20260831011635 78 318 0.0 0.0 0.00 0.00 0.00 90 1020.7
20260831011131 78 200 0.0 0.0 0.00 0.00 0.00 90 1020.7
20260831010627 78 199 0.0 0.0 0.00 0.00 0.00 90 1020.7
20260831010122 78 195 0.0 0.0 0.00 0.00 0.00 89 1020.7
20260831005617 79 195 0.0 0.0 0.00 0.00 0.00 89 1020.5
20260831005112 79 197 0.0 0.0 0.00 0.00 0.00 89 1020.7
20260831004608 79 193 0.0 0.0 0.00 0.00 0.00 89 1020.4
20260831004103 79 193 0.0 0.0 0.00 0.00 0.00 88 1020.4
20260831003559 79 192 0.0 0.0 0.00 0.00 0.00 89 1020.4
20260831003055 80 191 0.0 0.0 0.00 0.00 0.00 88 1020.4
20260831002553 80 190 0.0 0.0 0.00 0.00 0.00 87 1020.6
20260831002049 80 197 0.0 0.0 0.00 0.00 0.00 87 1020.4
20260831001544 81 191 0.0 0.0 0.00 0.00 0.00 86 1020.6
20260831001041 81 192 0.0 0.0 0.00 0.00 0.00 86 1020.5
20260831000537 82 189 0.0 0.0 0.00 0.00 0.00 86 1020.5
20260831000036 82 189 0.0 0.0 0.00 0.00 0.00 85 1020.4
20260830235535 82 187 0.0 0.0 0.00 0.00 0.00 84 1020.2
20260830235030 83 188 0.0 0.0 0.00 0.00 0.00 83 1020.4
20260830234525 84 178 0.0 0.0 0.00 0.00 0.00 82 1020.2
20260830234020 85 166 0.0 0.0 0.00 0.00 0.00 82 1020.3
20260830233516 85 165 0.0 0.0 0.00 0.00 0.00 80 1020.4
20260830233012 86 165 0.0 0.0 0.00 0.00 0.00 79 1020.6
20260830232508 86 165 0.0 0.0 0.00 0.00 0.00 78 1020.5
20260830232004 87 164 0.0 0.0 0.00 0.00 0.00 75 1020.5
20260830231459 86 164 0.0 0.0 0.00 0.00 0.00 77 1020.2
20260830230958 87 158 0.0 0.0 0.00 0.00 0.00 76 1020.5
20260830230454 87 164 0.0 0.0 0.00 0.00 0.00 75 1020.2
20260830225952 87 159 0.0 0.0 0.00 0.00 0.00 68 1020.4
20260830225449 87 159 0.0 0.0 0.00 0.00 0.00 66 1020.3
20260830224948 88 160 0.0 0.0 0.00 0.00 0.00 65 1020.4
20260830224447 88 159 0.0 0.0 0.00 0.00 0.00 64 1020.4
20260830223944 88 158 0.0 0.0 0.00 0.00 0.00 63 1020.4
20260830223440 88 160 0.0 0.0 0.00 0.00 0.00 63 1020.4
20260830222939 88 114 0.0 0.0 0.00 0.00 0.00 65 1020.4
20260830222435 88 161 0.0 0.0 0.00 0.00 0.00 64 1020.3
20260830221930 88 161 0.0 0.0 0.00 0.00 0.00 65 1020.6
20260830221426 88 161 0.0 0.0 0.00 0.00 0.00 64 1020.4
20260830220921 88 160 0.0 0.0 0.00 0.00 0.00 64 1020.4
20260830220416 88 165 0.0 0.0 0.00 0.00 0.00 65 1020.3
20260830215913 88 165 0.0 0.0 0.00 0.00 0.00 65 1020.3
20260830215408 88 154 0.0 0.0 0.00 0.00 0.00 64 1020.5
20260830214903 88 164 0.0 0.0 0.00 0.00 0.00 63 1020.6
20260830214358 88 161 0.0 0.0 0.00 0.00 0.00 64 1020.6
20260830213853 88 165 0.0 0.0 0.00 0.00 0.00 64 1020.5
20260830213348 89 164 0.0 0.0 0.00 0.00 0.00 63 1020.6
20260830212844 89 163 0.0 0.0 0.00 0.00 0.00 62 1020.6
20260830212340 89 164 0.0 0.0 0.00 0.00 0.00 63 1020.6
20260830211839 89 163 0.0 0.0 0.00 0.00 0.00 63 1020.5
20260830211333 89 161 0.0 0.0 0.00 0.00 0.00 62 1020.6
20260830210829 89 168 0.0 0.0 0.00 0.00 0.00 65 1020.8
20260830210328 90 167 0.0 0.0 0.00 0.00 0.00 60 1020.9
20260830205826 90 174 0.0 0.0 0.00 0.00 0.00 63 1020.8
20260830205319 91 150 0.0 0.0 0.00 0.00 0.00 61 1020.8
20260830204815 90 172 0.0 0.0 0.00 0.00 0.00 65 1020.8
20260830204314 91 167 0.0 0.0 0.00 0.00 0.00 59 1020.8
20260830203810 93 164 0.0 0.0 0.00 0.00 0.00 57 1020.8
20260830203306 90 175 0.0 0.0 0.00 0.00 0.00 62 1020.9
20260830202805 90 173 0.0 0.0 0.00 0.00 0.00 65 1021.2
20260830202300 93 173 0.0 0.0 0.00 0.00 0.00 59 1021.1
20260830201755 92 172 0.0 0.0 0.00 0.00 0.00 61 1021.2
20260830201249 89 173 0.0 0.0 0.00 0.00 0.00 63 1021.3
20260830200745 88 163 0.0 0.0 0.00 0.00 0.00 65 1021.4
20260830200244 89 117 0.0 0.0 0.00 0.00 0.00 67 1021.6
20260830195740 88 174 0.0 0.0 0.00 0.00 0.00 69 1021.5
20260830195238 88 112 0.0 0.0 0.00 0.00 0.00 67 1021.3
20260830194737 88 100 0.0 0.0 0.00 0.00 0.00 67 1021.5
20260830194232 87 110 0.0 0.0 0.00 0.00 0.00 67 1021.6
20260830193731 88 92 0.0 0.0 0.00 0.00 0.00 69 1021.5
20260830193226 89 143 0.0 0.0 0.00 0.00 0.00 67 1021.6
20260830192722 88 155 0.0 0.0 0.00 0.00 0.00 67 1021.6
20260830192217 87 165 0.0 0.0 0.00 0.00 0.00 69 1021.9
20260830191713 88 108 0.0 0.0 0.00 0.00 0.00 67 1021.9
20260830191212 87 114 0.0 0.0 0.00 0.00 0.00 66 1021.9
20260830190708 87 106 0.0 0.0 0.00 0.00 0.00 68 1021.8
20260830190203 88 151 0.0 0.0 0.00 0.00 0.00 66 1021.8
20260830185701 88 117 0.0 0.0 0.00 0.00 0.00 67 1022.1
20260830185157 88 122 0.0 0.0 0.00 0.00 0.00 67 1022.1
20260830184656 89 158 0.0 0.0 0.00 0.00 0.00 66 1022.1
20260830184155 88 117 0.0 0.0 0.00 0.00 0.00 66 1022.2
20260830183651 87 119 0.0 0.0 0.00 0.00 0.00 69 1022.3
20260830183146 87 116 0.0 0.0 0.00 0.00 0.00 68 1022.5
20260830182641 86 115 0.0 0.0 0.00 0.00 0.00 69 1022.6
20260830182137 86 103 0.0 0.0 0.00 0.00 0.00 70 1022.6
20260830181633 86 117 0.0 0.0 0.00 0.00 0.00 70 1022.6
20260830181133 86 119 0.0 0.0 0.00 0.00 0.00 69 1022.5
20260830180632 86 130 0.0 0.0 0.00 0.00 0.00 72 1022.6
20260830180127 86 125 0.0 0.0 0.00 0.00 0.00 69 1022.9
20260830175626 87 143 0.0 0.0 0.00 0.00 0.00 68 1022.9
20260830175121 87 125 0.0 0.0 0.00 0.00 0.00 70 1022.8
20260830174616 87 146 0.0 0.0 0.00 0.00 0.00 69 1022.8
20260830174112 86 129 0.0 0.0 0.00 0.00 0.00 70 1023.1
20260830173606 87 129 0.0 0.0 0.00 0.00 0.00 71 1023.2
20260830173101 86 153 0.0 0.0 0.00 0.00 0.00 74 1023.1
20260830172553 86 138 0.0 0.0 0.00 0.00 0.00 72 1023.1
20260830172049 87 149 0.0 0.0 0.00 0.00 0.00 70 1023.4
20260830171544 86 147 0.0 0.0 0.00 0.00 0.00 71 1023.3
20260830171038 86 144 0.0 0.0 0.00 0.00 0.00 73 1023.3
20260830170533 86 147 0.0 0.0 0.00 0.00 0.00 72 1023.5
20260830170032 86 147 0.0 0.0 0.00 0.00 0.00 74 1023.7
20260830165527 86 136 0.0 0.0 0.00 0.00 0.00 74 1024.0
20260830165023 86 130 0.0 0.0 0.00 0.00 0.00 71 1023.7
20260830164519 86 151 0.0 0.0 0.00 0.00 0.00 73 1023.8
20260830164015 86 139 0.0 0.0 0.00 0.00 0.00 73 1023.8
20260830163512 85 121 0.0 0.0 0.00 0.00 0.00 75 1023.9
20260830163010 85 139 0.0 0.0 0.00 0.00 0.00 75 1023.8
20260830162506 85 142 0.0 0.0 0.00 0.00 0.00 72 1024.0
20260830162001 85 139 0.0 0.0 0.00 0.00 0.00 73 1024.0
20260830161455 85 156 0.0 0.0 0.00 0.00 0.00 74 1024.1
20260830160950 85 112 0.0 0.0 0.00 0.00 0.00 78 1023.9
20260830160447 84 168 0.0 0.0 0.00 0.00 0.00 78 1024.0
20260830155941 85 151 0.0 0.0 0.00 0.00 0.00 77 1024.1
20260830155438 84 163 0.0 0.0 0.00 0.00 0.00 78 1024.0
20260830154933 85 168 0.0 0.0 0.00 0.00 0.00 78 1024.2
20260830154428 84 166 0.0 0.0 0.00 0.00 0.00 79 1024.2
20260830153924 83 141 0.0 0.0 0.00 0.00 0.00 81 1024.2
20260830153420 83 138 0.0 0.0 0.00 0.00 0.00 79 1024.0
20260830152919 82 165 0.0 0.0 0.00 0.00 0.00 84 1024.3
20260830152414 82 152 0.0 0.0 0.00 0.00 0.00 83 1024.1
20260830151907 82 145 0.0 0.0 0.00 0.00 0.00 82 1024.0
20260830151402 82 145 0.0 0.0 0.00 0.00 0.00 85 1024.1
20260830150856 82 132 0.0 0.0 0.00 0.00 0.00 84 1024.1
20260830150356 82 149 0.0 0.0 0.00 0.00 0.00 84 1024.2
20260830145851 82 142 0.0 0.0 0.00 0.00 0.00 84 1024.3
20260830145345 81 144 0.0 0.0 0.00 0.00 0.00 85 1024.0
20260830144841 82 156 0.0 0.0 0.00 0.00 0.00 86 1024.4
20260830144337 81 152 0.0 0.0 0.00 0.00 0.00 87 1024.2
20260830143832 81 170 0.0 0.0 0.00 0.00 0.00 88 1024.2
20260830143332 80 130 0.0 0.0 0.00 0.00 0.00 88 1024.3
20260830142826 80 141 0.0 0.0 0.00 0.00 0.00 88 1024.1
20260830142321 80 143 0.0 0.0 0.00 0.00 0.00 88 1024.1
20260830141816 80 149 0.0 0.0 0.00 0.00 0.00 88 1024.2
20260830141311 80 151 0.0 0.0 0.00 0.00 0.00 89 1024.4
20260830140806 79 138 0.0 0.0 0.00 0.00 0.00 89 1024.2
20260830140306 79 132 0.0 0.0 0.00 0.00 0.00 90 1024.2
20260830135801 79 141 0.0 0.0 0.00 0.00 0.00 89 1024.2
20260830135257 79 143 0.0 0.0 0.00 0.00 0.00 89 1024.2
20260830134753 79 157 0.0 0.0 0.00 0.00 0.00 89 1024.2
20260830134252 79 166 0.0 0.0 0.00 0.00 0.00 90 1024.0
20260830133748 79 149 0.0 0.0 0.00 0.00 0.00 90 1024.1
20260830133244 79 149 0.0 0.0 0.00 0.00 0.00 89 1024.2
20260830132739 78 147 0.0 0.0 0.00 0.00 0.00 90 1024.1
20260830132235 79 142 0.0 0.0 0.00 0.00 0.00 90 1023.9
20260830131734 79 147 0.0 0.0 0.00 0.00 0.00 91 1023.8
20260830131229 78 151 0.0 0.0 0.00 0.00 0.00 91 1024.0
20260830130724 78 132 0.0 0.0 0.00 0.00 0.00 90 1023.5
20260830130223 78 144 0.0 0.0 0.00 0.00 0.00 91 1023.7
20260830125718 78 136 0.0 0.0 0.00 0.00 0.00 91 1023.7
20260830125213 78 144 0.0 0.0 0.00 0.00 0.00 92 1023.5
20260830124711 78 142 0.0 0.0 0.00 0.00 0.00 92 1023.7
20260830124207 77 142 0.0 0.0 0.00 0.00 0.00 93 1023.4
20260830123703 77 135 0.0 0.0 0.00 0.00 0.00 94 1023.4
20260830123159 77 144 0.0 0.0 0.00 0.00 0.00 95 1023.3
20260830122656 76 145 0.0 0.0 0.00 0.00 0.00 97 1023.3
20260830122151 76 253 0.0 0.0 0.00 0.00 0.00 99 1023.4
20260830121647 75 254 0.0 0.0 0.00 0.00 0.00 99 1023.4
20260830121146 75 255 0.0 0.0 0.00 0.00 0.00 99 1023.1
20260830120641 74 254 0.0 0.0 0.00 0.00 0.00 99 1023.2
20260830120138 74 254 0.0 0.0 0.00 0.00 0.00 99 1023.0
20260830115633 73 255 0.0 0.0 0.00 0.00 0.00 99 1023.0
20260830115129 74 254 0.0 0.0 0.00 0.00 0.00 99 1023.0
20260830114626 73 254 0.0 0.0 0.00 0.00 0.00 99 1022.8
20260830114125 73 254 0.0 0.0 0.00 0.00 0.00 99 1023.1
20260830113620 73 253 0.0 0.0 0.00 0.00 0.00 99 1023.1
20260830113115 73 254 0.0 0.0 0.00 0.00 0.00 99 1023.1
20260830112612 73 255 0.0 0.0 0.00 0.00 0.00 99 1022.8
20260830112108 73 253 0.0 0.0 0.00 0.00 0.00 99 1022.9
20260830111603 73 254 0.0 0.0 0.00 0.00 0.00 99 1023.0
20260830111059 73 253 0.0 0.0 0.00 0.00 0.00 99 1023.0
20260830110558 73 253 0.0 0.0 0.00 0.00 0.00 99 1022.9
20260830110054 73 254 0.0 0.0 0.00 0.00 0.00 99 1022.6
20260830105549 73 254 0.0 0.0 0.00 0.00 0.00 99 1022.5
20260830105045 73 254 0.0 0.0 0.00 0.00 0.00 99 1022.6
20260830104542 73 254 0.0 0.0 0.00 0.00 0.00 99 1022.5
20260830104037 73 255 0.0 0.0 0.00 0.00 0.00 99 1022.4
20260830103532 73 254 0.0 0.0 0.00 0.00 0.00 99 1022.4
20260830103031 73 254 0.0 0.0 0.00 0.00 0.00 99 1022.4
20260830102531 73 254 0.0 0.0 0.00 0.00 0.00 99 1022.5
20260830102027 73 254 0.0 0.0 0.00 0.00 0.00 99 1022.3
20260830101522 73 255 0.0 0.0 0.00 0.00 0.00 99 1022.3
20260830101021 73 255 0.0 0.0 0.00 0.00 0.00 99 1022.4
20260830100516 73 255 0.0 0.0 0.00 0.00 0.00 99 1022.0
20260830100015 73 255 0.0 0.0 0.00 0.00 0.00 99 1022.2
20260830095510 73 255 0.0 0.0 0.00 0.00 0.00 99 1022.4
20260830095006 73 255 0.0 0.0 0.00 0.00 0.00 99 1022.3
20260830094502 73 255 0.0 0.0 0.00 0.00 0.00 99 1022.2
20260830093957 73 255 0.0 0.0 0.00 0.00 0.00 99 1022.2
20260830093452 73 255 0.0 0.0 0.00 0.00 0.00 99 1022.4
20260830092948 73 255 0.0 0.0 0.00 0.00 0.00 99 1022.1
20260830092444 73 255 0.0 0.0 0.00 0.00 0.00 99 1022.2
20260830091941 73 254 0.0 0.0 0.00 0.00 0.00 99 1022.3
20260830091440 73 254 0.0 0.0 0.00 0.00 0.00 99 1022.1
20260830090939 73 254 0.0 0.0 0.00 0.00 0.00 99 1022.1
20260830090435 73 254 0.0 0.0 0.00 0.00 0.00 99 1022.1
20260830085930 73 254 0.0 0.0 0.00 0.00 0.00 99 1021.9
20260830085424 73 254 0.0 0.0 0.00 0.00 0.00 99 1021.9
20260830084920 73 254 0.0 0.0 0.00 0.00 0.00 99 1021.8
20260830084415 73 255 0.0 0.0 0.00 0.00 0.00 99 1022.0
20260830083910 74 255 0.0 0.0 0.00 0.00 0.00 99 1022.0
20260830083406 74 255 0.0 0.0 0.00 0.00 0.00 99 1021.8
20260830082906 74 254 0.0 0.0 0.00 0.00 0.00 99 1022.0
20260830082401 74 254 0.0 0.0 0.00 0.00 0.00 99 1021.8
20260830081856 74 254 0.0 0.0 0.00 0.00 0.00 98 1021.8
20260830081351 74 254 0.0 0.0 0.00 0.00 0.00 98 1021.9
20260830080850 74 253 0.0 0.0 0.00 0.00 0.00 98 1021.6
20260830080347 74 255 0.0 0.0 0.00 0.00 0.00 98 1021.7
20260830075845 74 254 0.0 0.0 0.00 0.00 0.00 98 1021.8
20260830075341 74 254 0.0 0.0 0.00 0.00 0.00 98 1021.7
20260830074836 74 254 0.0 0.0 0.00 0.00 0.00 98 1021.7
20260830074332 74 254 0.0 0.0 0.00 0.00 0.00 98 1021.5
20260830073828 74 254 0.0 0.0 0.00 0.00 0.00 98 1021.5
20260830073323 74 254 0.0 0.0 0.00 0.00 0.00 97 1021.5
20260830072818 75 254 0.0 0.0 0.00 0.00 0.00 97 1021.7
20260830072314 75 254 0.0 0.0 0.00 0.00 0.00 97 1021.7
20260830071814 75 253 0.0 0.0 0.00 0.00 0.00 97 1021.8
20260830071308 75 253 0.0 0.0 0.00 0.00 0.00 97 1021.8
20260830070807 75 254 0.0 0.0 0.00 0.00 0.00 97 1021.8
20260830070302 75 253 0.0 0.0 0.00 0.00 0.00 97 1021.8
20260830065801 75 254 0.0 0.0 0.00 0.00 0.00 97 1021.7
20260830065255 75 258 0.0 0.0 0.00 0.00 0.00 97 1021.6
20260830064754 75 255 0.0 0.0 0.00 0.00 0.00 96 1022.0
20260830064249 75 255 0.0 0.0 0.00 0.00 0.00 96 1021.9
20260830063744 76 257 0.0 0.0 0.00 0.00 0.00 95 1022.0
20260830063243 76 252 0.0 0.0 0.00 0.00 0.00 96 1022.1
20260830062737 76 254 0.0 0.0 0.00 0.00 0.00 95 1022.1
20260830062227 76 255 0.0 0.0 0.00 0.00 0.00 95 1022.0
20260830061726 76 254 0.0 0.0 0.00 0.00 0.00 95 1022.3
20260830061222 76 252 0.0 0.0 0.00 0.00 0.00 96 1022.1
20260830060719 75 256 0.0 0.0 0.00 0.00 0.00 98 1022.0
20260830060215 75 257 0.0 0.0 0.00 0.00 0.00 98 1022.2
20260830055709 75 257 0.0 0.0 0.00 0.00 0.00 98 1022.2
20260830055206 75 257 0.0 0.0 0.00 0.00 0.00 98 1022.0
20260830054701 75 257 0.0 0.0 0.00 0.00 0.00 98 1022.2
20260830054156 75 257 0.0 0.0 0.00 0.00 0.00 98 1022.2
20260830053652 75 258 0.0 0.0 0.00 0.00 0.00 98 1022.1
20260830053151 75 258 0.0 0.0 0.00 0.00 0.00 98 1022.2